Regional Weather Roundup
Issued by NWS

Home | Current Version | Previous Version | Graphics & Text | Print | Product List | Glossary On
Versions: 1 2 3 4 5 6 7 8 9 10 11 12 13 14 15 16 17 18 19 20 21 22 23 24 25 26 27 28 29 30 31 32 33 34 35 36 37 38 39 40 41 42 43 44 45 46 47 48 49 50
000
ASUS43 KLMK 241802
RWRKY
KENTUCKY REGIONAL WEATHER ROUNDUP
NATIONAL WEATHER SERVICE LOUISVILLE KY
100 PM EST SAT JAN 24 2015

NOTE "FAIR" INDICATES FEW OR NO CLOUDS BELOW 12,000 FEET
WITH NO SIGNIFICANT WEATHER AND/OR OBSTRUCTIONS TO VISIBILITY.

KYZ001>023-026-027-061>063-070>075-241900-
WESTERN AND SOUTH CENTRAL KENTUCKY

CITY           SKY/WX    TMP DP  RH WIND       PRES   REMARKS
PADUCAH        SUNNY     47  28  47 W10       29.89F
HENDERSON      SUNNY     45  30  57 W9        29.86F
OWENSBORO      SUNNY     44  29  56 W14       29.85F
HOPKINSVILLE   SUNNY     43  33  69 SW14      29.88F
BOWLING GREEN  SUNNY     38  32  79 SW12G21   29.88F WCI  30
GLASGOW        NOT AVBL
$$

KYZ024-025-028>034-038-045-046-053-241900-
NORTH CENTRAL KENTUCKY

CITY           SKY/WX    TMP DP  RH WIND       PRES   REMARKS
LOUISVILLE/SDF MOSUNNY   38  30  73 SW12      29.80F HAZE    WCI  30
LOUISVILLE/LOU SUNNY     38  29  70 SW12G17   29.80F WCI  30
FORT KNOX      SUNNY     36  28  73 SW14      29.79F WCI  27
$$

KYZ035>037-039>044-047>052-055>060-089>105-241900-
NORTHEAST KENTUCKY

CITY           SKY/WX    TMP DP  RH WIND       PRES   REMARKS
LEXINGTON      MOSUNNY   32  27  81 SW16      29.79F WCI  21
COVINGTON      SUNNY     40  26  57 SW12G20   29.71F WCI  33
FRANKFORT      SUNNY     33  27  78 SW15      29.77F WCI  23
$$

KYZ054-064>069-076>088-106>120-241900-
SOUTHEAST KENTUCKY

CITY           SKY/WX    TMP DP  RH WIND       PRES   REMARKS
JACKSON        CLOUDY    31  27  85 VRB5      29.80F WCI  26
LONDON         CLOUDY    32  24  72 SW13      29.85F WCI  22
SOMERSET       NOT AVBL
MIDDLESBORO    NOT AVBL
MONTICELLO     CLOUDY    34  29  82 SW10      29.90F WCI  26
$$



USA.gov is the U.S. government's official web portal to all federal, state and local government web resources and services.